Temp
10 11 11 11 10 9 9 9 8 8 7 7 7 6 7 7 7 7 7 7 8 8 8 8 9 9 10 9 9 9 8 8 8 8 7 7 7 7 7 7 7 7 7
8 8 9 9 9 9 9 9 8 8 7 7 7 7 7 6 6 6 6 7 7 7 7 7 7 7 8 8 8 8 7 6 7 6 5 5 6 6 6 6 6 6 6
9 7 6 7 8 9 9 9 8 8 7 7 7 6 6 5 5 6 6 6 6 6 6 6 6 7 7 7 6 6 6 5 5 5 5 5 4 4 5 5 5 5 5
9 8 6 6 7 8 8 8 8 7 7 6 6 7 7 6 6 6 5 5 5 5 5 5 5 5 5 6 5 5 5 5 4 4 4 4 4 4 3 5 4 4 4
7 7 7 7 7 8 8 8 8 7 7 6 6 6 6 6 6 5 5 4 4 4 4 4 4 4 4 4 4 4 4 4 3 3 3 3 3 3 2 2 3 3 3
7 6 6 7 7 7 7 7 7 6 6 6 6 6 6 6 5 4 4 3 3 3 3 3 3 3 3 3 3 3 3 3 2 2 2 2 1 1 1 0 0 1 2
5 5 4 4 5 6 6 6 6 6 6 6 5 5 5 5 5 4 4 3 3 2 2 2 2 2 2 2 2 2 2 2 2 1 1 1 1 1 1 0 -0 -1 1
2 2 3 4 4 4 4 5 5 5 5 5 4 4 4 4 4 3 3 3 2 2 2 2 1 1 1 1 1 1 1 1 1 1 1 0 0 0 0 0 -0 -1 -1
1 1 0 1 2 3 3 4 4 4 3 3 3 3 3 3 3 3 2 2 2 1 1 0 0 0 0 0 0 -0 -0 0 -0 -0 -0 -0 -0 -0 -0 -1 -1 -1 -2
0 -1 -1 -1 -1 0 1 2 2 2 2 2 2 2 2 2 2 1 1 1 0 -0 -0 -0 -0 -1 -1 -1 -1 -1 -1 -1 -1 -1 -1 -1 -1 -1 -1 -1 -1 -1 -1
-1 -1 -1 -2 -2 -2 -2 -1 -0 0 1 1 1 1 1 0 0 0 0 -0 -0 -1 -1 -1 -1 -1 -2 -2 -2 -2 -2 -2 -2 -2 -2 -2 -2 -2 -1 -1 -2 -2 -2
-0 -1 -2 -2 -2 -3 -2 -2 -2 -2 -2 -2 -1 -1 -1 -0 -0 -1 -1 -1 -1 -2 -3 -3 -2 -2 -2 -2 -2 -2 -3 -3 -3 -3 -3 -3 -3 -3 -3 -2 -2 -2 -2
-2 -2 -3 -3 -4 -4 -4 -4 -3 -3 -3 -2 -2 -2 -2 -2 -2 -2 -2 -2 -3 -3 -3 -3 -3 -3 -3 -3 -3 -3 -3 -3 -3 -3 -3 -3 -3 -3 -3 -3 -3 -3 -3
-1 -3 -3 -4 -4 -5 -5 -5 -5 -4 -4 -4 -3 -3 -3 -3 -3 -3 -3 -3 -3 -3 -3 -3 -3 -4 -4 -3 -3 -3 -4 -4 -4 -4 -4 -4 -4 -4 -4 -4 -4 -4 -4
-2 -3 -4 -4 -5 -6 -6 -6 -6 -6 -5 -5 -4 -4 -4 -4 -4 -4 -4 -4 -4 -4 -4 -4 -4 -4 -4 -4 -4 -4 -4 -4 -4 -4 -4 -4 -4 -4 -4 -4 -4 -4 -4
-3 -4 -4 -5 -5 -6 -6 -7 -7 -7 -6 -6 -6 -5 -5 -5 -5 -5 -5 -5 -5 -5 -5 -5 -5 -5 -5 -5 -4 -4 -4 -4 -5 -5 -4 -4 -4 -4 -4 -3 -3 -4 -3
-4 -5 -5 -6 -6 -7 -7 -7 -7 -7 -7 -6 -6 -6 -6 -6 -6 -6 -6 -6 -6 -6 -6 -6 -6 -6 -6 -6 -5 -4 -4 -5 -5 -5 -5 -5 -5 -5 -5 -5 -4 -3 -3
-4 -5 -6 -6 -7 -8 -8 -7 -7 -7 -7 -7 -7 -7 -7 -7 -7 -7 -7 -7 -7 -7 -7 -7 -7 -7 -7 -6 -5 -5 -5 -5 -6 -6 -5 -5 -5 -5 -5 -5 -5 -5 -5
-6 -7 -8 -7 -8 -8 -8 -8 -8 -8 -8 -8 -9 -8 -9 -9 -9 -9 -9 -8 -8 -8 -8 -8 -8 -8 -7 -7 -6 -6 -6 -6 -6 -6 -6 -6 -6 -6 -5 -5 -6 -6 -6
-8 -8 -9 -8 -8 -9 -9 -9 -9 -9 -9 -10 -10 -10 -10 -10 -10 -10 -9 -9 -9 -9 -9 -9 -9 -9 -8 -8 -7 -7 -7 -7 -7 -7 -7 -6 -6 -6 -5 -5 -6 -6 -6
-9 -9 -9 -9 -9 -9 -9 -10 -10 -10 -10 -11 -11 -11 -11 -11 -11 -11 -10 -10 -10 -10 -10 -10 -10 -10 -9 -9 -9 -8 -7 -7 -7 -7 -7 -7 -6 -6 -5 -5 -5 -6 -6
-9 -10 -10 -10 -10 -10 -10 -11 -11 -11 -11 -12 -12 -12 -12 -12 -12 -12 -12 -11 -11 -11 -11 -11 -11 -11 -10 -10 -9 -8 -7 -7 -7 -7 -7 -7 -6 -6 -5 -5 -5 -4 -4
-10 -10 -10 -10 -10 -11 -11 -11 -11 -12 -12 -13 -13 -13 -13 -13 -13 -13 -13 -12 -12 -12 -13 -13 -13 -12 -12 -11 -10 -9 -8 -7 -7 -7 -7 -7 -6 -6 -5 -5 -5 -5 -5
-11 -11 -11 -12 -12 -12 -12 -12 -13 -13 -13 -14 -13 -14 -14 -13 -13 -13 -14 -14 -14 -14 -14 -14 -13 -12 -12 -11 -10 -10 -9 -9 -8 -8 -7 -7 -7 -7 -6 -6 -6 -5 -5
-12 -12 -12 -12 -12 -12 -13 -13 -13 -14 -14 -14 -14 -15 -15 -15 -15 -14 -14 -14 -14 -13 -13 -13 -12 -12 -12 -11 -10 -9 -9 -9 -8 -8 -8 -8 -8 -8 -8 -7 -7 -7 -6
-12 -13 -13 -13 -13 -14 -14 -14 -14 -15 -15 -15 -15 -15 -15 -15 -15 -15 -15 -14 -13 -12 -12 -11 -10 -10 -10 -9 -9 -9 -8 -8 -7 -7 -7 -8 -8 -8 -8 -8 -7 -7 -6
Height
755 760 765 770 775 781 785 788 791 794 796 799 801 804 804 805 807 807 808 808 808 807 807 807 807 805 805 804 804 804 804 804 805 806 806 806 806 805 805 805 804 805 803
754 757 762 767 771 776 781 785 789 792 794 797 800 802 803 805 807 807 808 808 808 808 808 807 808 807 806 806 805 805 805 806 806 806 806 808 809 808 808 808 808 807 806
749 755 760 765 769 773 777 782 786 790 793 796 798 800 802 804 806 806 807 808 808 808 808 807 808 808 807 806 806 806 806 808 809 808 808 809 812 811 810 809 810 809 808
745 750 756 761 765 770 777 782 786 789 792 795 797 798 799 801 803 804 806 807 808 808 808 809 809 809 807 807 807 808 808 809 810 810 811 811 812 813 813 811 810 810 809
743 747 753 758 764 770 774 779 783 788 791 793 795 797 799 800 801 803 805 807 808 809 809 810 811 811 810 809 809 809 810 810 812 812 811 812 813 814 815 813 811 811 811
746 749 754 758 764 770 775 778 781 786 790 793 795 796 797 799 800 801 804 806 808 809 810 810 811 812 811 811 810 811 811 811 812 813 814 814 815 815 816 816 814 813 812
752 753 755 759 763 767 772 776 779 782 786 791 794 795 797 798 799 801 803 805 807 809 810 810 811 811 811 811 811 811 811 811 812 813 814 815 816 816 816 816 816 815 813
761 760 759 760 764 768 772 775 780 783 785 788 793 795 796 798 800 801 803 804 806 808 809 809 809 810 810 810 811 812 811 812 812 812 813 813 814 815 816 816 816 816 814
769 767 766 766 768 771 775 777 780 784 784 786 790 793 795 796 798 800 802 804 806 808 809 810 810 809 810 810 810 811 811 811 811 811 812 813 813 813 814 815 815 816 817
772 771 771 772 773 775 778 778 782 784 785 787 790 792 794 795 797 800 802 804 806 808 809 810 810 809 809 809 809 810 810 810 810 810 810 811 812 812 812 812 813 814 815
776 776 776 776 777 778 782 781 782 784 785 786 790 791 793 795 796 799 800 802 805 806 808 809 809 810 809 809 807 808 809 808 809 810 810 809 810 811 811 810 811 811 812
779 779 779 780 781 784 783 784 784 788 787 790 792 793 795 795 796 797 799 800 801 803 805 807 808 808 808 807 807 807 806 806 805 806 807 808 808 808 809 808 809 808 809
780 783 782 782 785 783 788 786 786 788 790 789 793 794 796 795 796 796 796 797 797 799 801 804 804 803 805 805 803 803 803 803 802 803 804 804 805 805 805 805 806 805 806
777 783 785 783 785 787 788 790 788 789 791 792 793 793 793 792 794 795 795 797 797 795 797 798 799 799 802 802 801 800 799 798 798 798 799 800 800 801 801 802 802 802 802
777 781 784 785 787 789 791 791 791 791 793 793 793 792 792 793 792 793 794 793 795 794 794 796 795 795 797 798 798 796 795 794 792 793 794 795 795 796 797 797 797 797 797
778 783 786 787 789 792 794 794 795 795 794 794 793 791 791 793 793 792 792 794 792 789 791 792 791 791 793 794 795 792 791 789 789 786 788 789 790 790 791 792 791 791 790
781 785 788 788 790 792 793 794 795 795 793 792 793 792 793 793 792 792 794 795 791 788 787 788 786 788 788 790 789 787 785 785 783 782 783 783 784 785 785 785 785 785 785
783 789 790 789 790 792 791 791 792 792 790 790 792 792 792 791 792 791 791 790 788 788 787 785 783 784 784 786 785 784 782 777 777 776 777 777 778 778 780 780 779 779 779
787 790 793 793 791 790 790 788 788 789 789 790 789 788 788 790 790 790 787 786 784 784 783 783 780 778 780 781 781 780 775 772 770 770 771 771 771 772 773 773 772 772 771
790 790 793 793 793 791 789 788 788 788 786 785 786 787 788 788 785 782 783 783 781 779 777 776 776 775 776 775 776 773 769 766 764 764 763 764 764 764 765 765 765 764 764
792 792 791 791 792 792 789 787 788 785 784 784 785 785 784 781 781 779 779 779 776 775 774 774 769 769 770 768 767 765 762 760 758 757 756 756 756 756 756 756 756 755 758
794 792 790 789 789 789 789 785 784 785 784 784 782 781 779 779 775 775 774 773 772 771 771 766 763 763 762 761 759 756 754 752 751 749 748 748 748 748 747 747 747 748 749
794 792 791 789 787 787 785 783 783 782 780 780 779 776 776 774 771 771 769 769 767 769 765 762 760 757 756 753 751 748 746 744 742 741 740 739 739 739 738 738 739 740 740
794 792 790 788 786 785 782 779 779 777 776 775 773 773 771 768 768 766 765 764 765 764 761 758 755 751 749 746 743 741 738 737 735 734 732 731 731 731 730 729 730 731 732
790 790 789 785 782 781 779 776 773 771 772 771 768 766 766 764 761 760 760 760 760 758 754 751 747 744 741 738 736 734 731 728 726 726 724 723 722 722 722 723 724 725 725
789 787 784 781 779 777 772 769 769 769 768 764 762 762 761 758 757 756 755 755 754 751 748 744 741 737 733 730 727 725 723 721 718 716 713 713 712 713 713 714 716 717 719
Wind_Speed
5 18 25 25 25 24 22 21 20 18 18 17 14 10 7 6 5 5 5 5 6 7 7 8 9 11 13 15 14 12 14 18 6 2 8 13 15 17 17 16 16 17 17
7 11 23 27 28 28 25 23 21 20 19 17 13 6 8 6 5 5 4 5 5 5 6 7 8 9 10 12 14 14 11 11 15 5 2 2 0 8 13 14 15 16 15
10 8 14 25 29 29 28 25 22 20 18 17 15 9 9 7 8 7 5 5 5 4 5 6 6 7 9 12 13 14 13 11 10 14 4 2 1 3 6 8 11 13 14
6 7 11 19 30 30 25 22 19 18 18 17 16 14 13 10 9 9 7 6 5 4 4 4 4 5 8 8 10 11 12 9 10 5 9 6 3 1 3 1 4 9 11
8 9 10 18 23 26 25 21 19 17 16 17 16 15 13 10 9 11 10 8 6 4 3 2 3 4 6 7 7 8 9 10 8 9 5 4 2 2 1 2 3 5 7
5 6 10 16 20 20 21 20 19 17 14 14 15 15 14 13 13 14 12 9 6 4 2 1 2 3 4 5 6 6 6 7 6 6 6 5 2 2 2 2 2 3 3
6 6 7 10 18 22 22 20 19 17 14 12 11 12 12 12 12 13 12 10 8 5 3 2 0 1 3 4 4 4 4 4 4 4 4 4 3 2 2 2 2 2 3
7 8 6 8 13 17 16 15 14 12 11 9 7 7 7 7 9 9 10 9 8 6 5 3 2 0 1 2 3 3 4 4 4 4 4 3 2 3 2 2 1 2 2
8 9 12 16 12 10 10 10 11 9 8 6 4 4 4 5 6 6 7 7 6 5 4 2 1 1 1 2 3 4 4 4 4 4 4 5 4 3 4 4 4 2 2
8 9 11 15 17 15 12 12 8 7 6 5 3 3 2 3 3 4 4 4 4 3 2 3 3 2 2 3 4 5 5 6 6 6 6 6 6 7 6 6 6 7 6
7 8 10 15 17 18 16 18 16 14 11 8 6 6 5 5 4 4 4 3 2 3 4 4 4 4 4 5 5 6 7 7 7 7 8 8 8 9 9 8 8 9 9
7 8 11 13 14 14 17 16 16 15 14 11 8 7 5 5 4 3 2 3 6 5 4 5 5 7 8 8 9 9 8 9 9 10 12 13 12 12 12 11 11 11 12
8 6 9 11 12 16 14 16 14 11 8 7 4 2 1 1 2 3 3 5 6 7 9 11 10 7 9 10 9 10 11 12 12 12 13 14 14 13 12 12 13 12 12
10 8 6 9 13 14 13 12 13 11 8 7 5 4 3 2 2 2 4 6 9 10 8 8 9 9 11 12 12 13 14 14 14 15 15 16 16 16 15 14 13 13 13
8 7 6 7 10 11 11 11 10 9 7 6 5 6 6 5 4 4 5 6 8 8 9 10 11 11 13 15 15 15 16 16 16 16 16 16 16 16 15 16 17 15 16
8 6 6 8 9 9 9 9 9 9 7 7 8 8 7 7 7 6 6 6 6 7 9 11 13 15 17 15 16 17 19 19 19 19 19 20 20 18 18 20 19 20 20
7 6 6 7 9 8 7 7 6 6 8 9 8 8 9 9 10 10 10 11 11 11 12 13 14 16 16 16 17 18 20 22 22 20 20 21 21 18 19 18 18 22 20
7 6 6 6 6 5 6 6 6 6 6 7 7 8 9 11 11 11 12 13 14 15 16 17 16 18 20 18 20 21 21 19 19 18 18 20 22 22 21 22 22 24 25
7 8 5 3 4 5 6 7 6 6 6 6 9 11 12 12 13 15 15 16 16 16 17 18 18 18 20 19 20 20 20 20 22 22 21 22 24 24 22 23 21 22 25
7 6 4 3 4 8 9 8 6 5 6 10 15 14 14 15 16 17 17 17 16 19 20 18 19 19 21 20 22 22 22 22 22 22 24 24 26 25 24 26 24 23 24
4 5 5 4 4 9 10 10 7 9 11 15 15 14 16 17 17 16 17 19 20 21 21 21 21 22 23 23 22 23 24 23 22 22 22 23 24 26 28 28 28 26 26
5 8 9 9 7 12 13 10 9 12 17 16 15 18 18 17 13 16 18 19 18 19 20 22 25 25 25 23 22 22 24 25 27 25 24 25 25 25 26 27 27 28 28
8 10 9 9 12 15 11 9 14 18 16 16 18 19 18 16 15 18 16 14 16 21 22 17 18 20 22 22 21 22 22 24 25 23 22 23 26 27 28 28 28 27 25
11 11 10 11 17 14 12 14 17 15 15 19 19 19 18 17 17 17 17 16 19 22 19 17 19 21 23 24 26 25 25 23 24 24 26 24 22 20 21 12 24 26 21
13 14 12 14 15 17 18 19 16 16 18 18 18 18 17 19 19 18 18 18 20 20 22 22 23 22 21 23 23 24 24 26 29 25 25 26 26 24 24 23 23 19 24
14 15 16 15 17 20 21 21 18 17 17 17 14 15 17 19 17 17 21 20 19 21 23 24 26 26 28 29 29 29 29 30 30 27 20 25 24 21 21 20 20 21 21
Wind_Direction
177 191 195 191 187 187 184 185 181 181 182 176 166 167 161 144 135 121 111 105 97 91 82 77 72 66 58 57 57 62 58 56 67 113 80 68 65 66 61 57 56 52 51
167 172 182 186 187 185 187 187 188 187 190 189 180 174 180 183 170 148 139 120 112 103 95 82 71 67 64 59 54 55 58 49 41 54 70 23 11 39 44 48 45 46 46
178 169 169 182 189 190 189 190 190 191 192 190 191 184 177 179 186 178 167 151 135 125 106 92 75 63 56 52 47 45 51 50 48 45 66 68 9 336 12 37 23 27 34
166 154 165 176 190 194 191 190 191 193 194 195 203 206 201 194 203 196 191 176 163 147 125 101 80 63 60 58 51 43 42 44 45 62 50 65 47 33 335 0 33 25 21
173 169 177 179 189 190 188 186 187 194 198 203 209 210 208 208 201 198 193 186 176 162 141 98 61 46 47 48 47 45 40 42 39 39 34 53 38 25 32 306 352 5 17
102 107 138 163 179 185 184 184 184 189 197 205 211 216 219 217 204 195 194 188 184 180 166 121 63 37 38 37 39 36 35 39 41 35 30 34 35 18 7 337 340 326 347
74 103 122 141 168 175 179 182 183 184 191 206 217 223 228 226 217 207 202 198 200 205 200 192 110 16 23 22 21 21 24 26 27 26 23 10 1 327 312 294 302 325 320
40 48 60 122 154 167 171 173 179 181 185 190 214 223 223 219 214 213 208 211 213 223 218 217 218 277 348 359 359 355 354 351 353 348 341 341 327 319 299 279 290 317 295
48 51 49 51 89 124 145 160 167 174 168 167 186 192 196 200 205 204 204 212 215 212 217 239 271 308 335 344 345 337 334 323 322 324 319 317 313 300 297 286 265 213 305
60 58 56 59 66 80 96 103 113 113 115 121 134 139 150 150 158 173 175 178 179 197 258 275 279 282 305 319 322 317 311 306 300 293 295 300 299 298 299 294 272 254 241
69 66 64 64 68 75 73 82 84 88 92 101 110 118 115 119 129 140 145 159 200 274 267 275 286 300 312 317 315 310 311 309 301 289 285 280 283 287 286 282 277 265 252
84 81 77 70 69 68 68 73 75 67 71 74 82 92 112 127 139 155 214 238 255 234 226 263 271 289 293 298 298 296 293 291 285 278 269 268 270 272 274 270 267 266 259
100 81 75 75 68 66 62 68 67 65 63 74 77 81 24 344 315 291 267 238 211 238 276 273 272 281 292 292 287 284 288 287 284 279 271 267 265 262 264 265 262 261 261
120 110 91 79 77 70 63 56 58 54 51 54 54 53 36 12 347 236 283 259 263 268 267 261 270 280 284 284 284 283 282 280 279 278 271 267 259 260 262 259 260 260 254
117 111 103 88 85 73 65 54 50 46 43 53 55 41 28 15 1 339 288 284 280 274 274 275 280 283 284 285 289 287 283 280 276 275 273 264 260 263 262 258 259 257 250
113 106 97 93 78 72 59 49 38 30 30 34 33 27 19 8 3 353 338 312 302 306 296 290 290 288 285 286 281 280 279 280 275 273 270 266 261 259 262 262 263 250 243
111 105 93 83 84 72 53 33 19 18 26 28 23 20 11 5 358 345 331 321 322 315 304 298 297 292 291 284 282 280 277 278 280 277 272 268 267 260 262 266 264 262 263
106 91 86 96 96 80 57 32 20 13 25 27 17 6 356 348 338 329 321 318 319 312 307 300 296 292 289 286 283 281 281 282 279 276 269 264 265 263 261 266 269 266 262
78 92 66 57 82 54 19 14 22 22 26 13 357 348 336 327 323 318 319 316 314 310 308 303 300 296 293 288 281 279 282 279 277 276 271 267 263 264 259 256 258 263 265
66 62 30 39 41 19 6 359 355 353 0 347 336 328 322 321 318 318 314 310 307 306 304 298 296 289 286 281 279 280 282 278 274 271 270 263 261 262 258 254 252 251 253
31 16 8 0 8 359 348 341 331 344 338 329 321 314 315 317 314 311 308 306 305 300 297 295 295 292 287 287 281 277 274 271 271 265 261 258 260 259 258 254 250 242 254
353 352 346 336 334 340 335 326 320 323 320 316 311 312 314 308 306 303 303 305 303 298 295 300 299 295 292 289 282 277 273 270 265 262 259 255 258 260 258 256 255 254 251
335 334 326 315 319 326 327 312 310 315 316 309 305 310 308 303 302 303 301 300 297 293 296 295 292 289 289 288 286 281 276 273 275 273 269 261 259 257 257 258 255 252 253
316 320 313 308 310 317 312 305 306 309 305 304 304 302 303 305 301 297 301 296 291 293 291 284 281 280 281 283 289 286 284 279 272 270 268 270 269 266 260 261 253 250 250
314 315 305 301 299 309 306 308 311 312 302 298 297 299 296 301 305 302 297 293 294 289 280 275 271 269 269 274 281 276 271 268 269 264 263 262 259 258 255 257 258 266 245
308 306 302 294 293 303 308 310 310 302 296 293 291 292 296 297 295 292 293 295 290 292 290 289 289 290 288 289 288 284 282 281 280 278 255 239 240 235 237 239 240 239 241